This is the latest recevied weather packets stored in our database for station/object NW1E. If no packets are shown the sender has not sent any weather packets the latest 10 day(s).
| Time | Temp. | Humidity | Pressure | Rain* | Wind** | Luminosity | Snow |
|---|---|---|---|---|---|---|---|
| 1777635730 | 21.11° C | 94% | 1012.4 hPa | 0 mm | - | 51 W/m² | - |
| 1777632064 | 20° C | 93% | 1011.9 hPa | 0 mm | - | 0 W/m² | - |
| 1777630788 | 20° C | 93% | 1011.9 hPa | 0 mm | - | 0 W/m² | - |
| 1777629909 | 20.56° C | 93% | 1011.7 hPa | 0 mm | - | 0 W/m² | - |
| 1777626725 | 20.56° C | 93% | 1011.4 hPa | 0 mm | - | 0 W/m² | - |
| 1777625826 | 20.56° C | 92% | 1011.3 hPa | 0 mm | - | 0 W/m² | - |
| 1777625524 | 21.11° C | 92% | 1011.1 hPa | 0 mm | - | 0 W/m² | - |
| 1777624624 | 21.11° C | 92% | 1011.2 hPa | 0 mm | - | 0 W/m² | - |
| 1777623423 | 21.67° C | 92% | 1011.3 hPa | 0 mm | - | 0 W/m² | - |
| 1777622823 | 22.22° C | 92% | 1011.5 hPa | 0 mm | - | 0 W/m² | - |
| 1777620754 | 22.78° C | 92% | 1011.4 hPa | 0 mm | - | 0 W/m² | - |
| 1777618299 | 23.33° C | 90% | 1011.6 hPa | 0 mm | - | 0 W/m² | - |
| 1777617391 | 23.33° C | 90% | 1011.6 hPa | 0 mm | - | 0 W/m² | - |
| 1777616194 | 23.33° C | 91% | 1012 hPa | 0 mm | - | 0 W/m² | - |
| 1777615894 | 23.33° C | 91% | 1012 hPa | 0 mm | - | 0 W/m² | - |
| 1777613493 | 23.33° C | 91% | 1012.2 hPa | 0 mm | - | 0 W/m² | - |
| 1777612760 | 23.33° C | 90% | 1012.3 hPa | 0 mm | - | 0 W/m² | - |
| 1777610165 | 23.33° C | 90% | 1012.4 hPa | 0 mm | - | 0 W/m² | - |
| 1777607458 | 23.33° C | 89% | 1012.4 hPa | 0 mm | - | 0 W/m² | - |
| 1777606257 | 23.33° C | 89% | 1012.3 hPa | 0 mm | - | 0 W/m² | - |
| 1777603257 | 24.44° C | 86% | 1012.4 hPa | 0 mm | - | 0 W/m² | - |
| 1777602657 | 24.44° C | 85% | 1012.5 hPa | 0 mm | - | 0 W/m² | - |
| 1777601755 | 24.44° C | 85% | 1012.6 hPa | 0 mm | - | 0 W/m² | - |
| 1777600248 | 25° C | 84% | 1012.5 hPa | 0 mm | - | 0 W/m² | - |
| 1777599946 | 25° C | 84% | 1012.4 hPa | 0 mm | - | 0 W/m² | - |
* Rain latest hour (hover to see other rain measurements)
** Current wind speed in m/s (hover to see current wind gust speed)